Wind_Speed
10 9 9 8 7 7 6 6 6 5 4 4 5 5 4 4 6 6 7 6 4 5 7 7 5 6 4 4 5 6 4 4 7 5 8 11 14 14 16 17 14 14 12
16 14 13 12 11 9 10 10 8 8 7 7 5 6 8 7 8 7 7 8 7 8 10 7 6 6 7 5 4 5 6 5 4 5 8 11 16 16 18 18 17 15 13
21 21 18 17 15 14 13 12 10 9 10 10 10 10 8 7 8 9 9 8 8 8 8 9 7 6 7 9 8 7 7 7 5 5 6 7 17 18 19 19 18 16 15
25 26 25 23 21 21 18 15 13 12 14 15 15 12 11 11 12 11 12 12 11 11 9 9 9 8 6 8 11 9 8 7 7 6 6 5 16 19 20 21 20 17 16
21 29 29 27 28 27 23 19 17 15 15 16 16 15 14 12 12 12 13 13 13 13 12 9 8 10 9 8 10 11 10 9 7 8 7 6 12 18 21 22 21 19 16
23 25 27 30 31 26 25 22 19 19 17 15 14 16 17 16 14 11 9 10 14 13 13 13 12 10 12 11 9 11 12 10 9 7 7 9 9 17 21 25 22 19 17
20 17 12 11 10 17 25 22 20 26 20 17 12 15 17 18 17 16 16 16 17 16 16 15 14 14 12 11 12 10 12 13 10 9 7 9 8 11 20 23 22 20 18
22 21 23 25 26 28 30 32 34 29 25 21 9 4 1 7 15 18 20 22 23 20 20 17 15 15 15 13 13 12 11 13 12 10 8 8 10 10 15 25 24 21 20
23 21 20 21 23 25 28 32 34 34 31 25 22 9 2 4 1 9 11 12 18 20 19 21 17 17 16 15 13 14 12 15 14 13 10 8 11 11 12 25 28 23 22
23 21 22 22 23 23 25 25 27 35 35 27 20 24 22 9 3 2 5 3 9 11 17 17 15 15 14 15 12 13 11 11 19 16 14 11 10 13 11 9 28 30 28
23 23 23 22 21 21 23 24 26 31 36 31 27 17 24 15 13 4 3 5 9 4 6 12 15 17 16 15 15 14 12 12 14 19 15 12 11 14 15 14 33 32 27
19 21 21 23 23 23 25 28 27 27 31 34 30 31 22 10 9 5 2 4 6 7 6 8 13 15 14 16 16 13 15 12 13 20 18 14 14 15 15 14 21 32 27
20 16 15 15 15 16 17 19 15 14 23 26 32 31 33 28 21 21 16 5 5 9 5 11 14 16 14 16 16 14 15 12 12 20 18 18 15 14 13 13 12 31 29
19 19 18 19 20 19 21 20 20 22 17 15 23 27 30 31 28 23 20 10 1 2 3 7 7 14 14 13 14 13 15 13 12 17 19 18 16 17 12 10 4 31 30
18 20 20 20 19 20 21 23 25 27 26 25 22 18 26 31 30 27 25 23 13 4 3 4 4 5 12 14 14 14 16 14 13 14 16 17 18 18 16 12 8 23 28
19 18 19 19 19 20 18 18 20 22 25 29 29 23 21 27 31 27 25 25 20 13 2 8 4 4 5 12 12 12 14 16 13 16 16 14 14 15 15 20 12 27 30
18 18 19 19 19 19 18 18 18 15 15 17 25 29 28 25 28 30 27 25 22 20 7 6 5 8 5 10 11 12 14 15 14 14 16 15 15 14 15 22 17 26 35
18 19 20 21 18 18 21 20 20 19 17 17 19 27 30 28 26 33 30 27 26 23 14 9 3 4 4 9 8 9 13 12 14 15 17 16 13 14 16 25 20 32 36
17 16 16 17 17 19 19 20 23 22 21 18 21 23 33 28 26 33 32 30 27 22 17 10 5 1 2 10 8 10 9 12 12 13 14 15 17 16 16 24 20 35 37
15 15 16 17 18 19 20 20 20 24 19 18 20 23 30 28 28 35 33 31 28 21 16 12 7 3 4 9 8 9 7 8 9 7 11 17 16 16 19 26 24 39 36
13 13 14 15 15 16 16 16 16 21 19 16 16 19 26 29 23 34 35 33 28 22 17 12 7 2 3 5 10 6 8 8 6 4 7 12 17 19 25 25 30 35 36
12 14 14 14 14 12 14 15 16 23 19 16 14 14 25 22 28 33 35 32 28 24 18 11 8 2 3 2 10 6 8 7 1 4 5 5 11 17 19 22 32 40 37
12 13 12 15 14 13 4 12 14 22 18 16 17 13 19 20 27 37 33 29 23 17 15 16 14 4 2 3 1 3 6 4 2 5 11 9 13 15 13 19 31 40 37
12 8 12 13 13 13 6 11 17 18 17 15 14 18 16 17 20 34 27 23 18 16 14 13 12 4 2 4 5 6 4 3 3 9 8 5 12 17 19 23 37 41 39
18 10 9 11 11 10 10 12 14 16 16 15 13 16 18 17 21 24 25 23 18 15 13 10 9 4 5 7 12 9 11 7 4 4 7 10 12 17 20 27 37 36 34
18 12 14 12 10 11 9 9 14 15 14 13 14 18 16 22 24 22 24 24 20 16 13 10 9 5 7 10 8 13 16 14 6 2 9 8 19 11 7 13 25 32 33
Wind_Direction
229 232 234 235 229 244 265 265 259 262 257 257 295 313 305 305 328 301 285 275 274 309 319 334 304 273 297 310 338 348 324 223 207 205 191 190 193 178 170 172 165 160 150
232 238 232 232 234 254 257 255 262 266 252 250 254 289 290 267 278 291 296 286 285 297 300 299 319 275 259 277 293 319 341 306 245 237 212 181 192 188 177 175 170 163 155
237 237 241 242 251 252 242 239 247 256 245 248 260 287 287 277 271 271 283 286 285 289 303 288 292 300 266 256 266 284 303 324 278 281 224 201 189 193 182 177 171 164 159
245 243 242 243 255 246 239 239 239 245 250 257 268 272 274 273 276 268 260 270 271 276 285 294 277 277 287 261 251 264 281 293 305 275 254 199 186 191 191 180 173 166 163
253 247 245 250 254 246 236 234 237 239 245 255 263 265 256 260 263 272 265 266 265 263 269 282 283 277 277 275 259 253 260 268 291 289 267 199 186 194 197 183 175 168 166
255 262 266 262 263 258 241 232 229 236 240 251 257 258 255 253 259 260 258 267 263 259 264 263 270 277 271 266 268 258 248 255 268 278 271 240 198 194 203 183 178 170 172
259 242 226 232 277 262 244 244 243 248 233 243 246 257 259 254 246 248 260 266 272 265 258 259 262 267 273 264 260 266 247 243 248 256 266 260 227 199 196 191 183 176 174
253 251 249 242 255 245 247 236 250 248 236 233 212 210 298 264 253 252 260 266 265 256 250 251 253 259 262 266 259 255 248 237 235 245 254 264 243 219 190 195 188 183 179
262 254 244 249 249 245 240 244 249 241 223 221 222 197 72 219 298 248 249 268 263 250 249 245 254 255 253 257 266 247 252 229 230 235 241 244 248 232 199 203 187 180 187
261 251 251 251 246 244 244 246 247 239 223 218 215 222 229 221 175 300 231 325 347 253 245 233 245 247 250 247 258 245 250 247 220 213 223 228 237 233 221 187 189 190 187
266 260 256 250 243 245 245 242 240 236 230 222 218 207 220 219 224 171 225 279 298 293 244 244 250 244 246 249 246 244 242 249 236 216 213 218 222 226 221 219 190 188 182
281 269 261 256 255 256 250 247 242 237 234 230 232 222 215 199 193 179 145 221 227 274 263 255 245 230 248 241 238 245 237 248 242 211 202 209 224 223 227 217 208 189 182
288 278 267 254 241 234 229 232 245 246 235 229 228 228 228 228 223 216 210 189 210 241 271 306 236 239 232 239 236 242 230 239 239 210 205 212 228 234 246 262 294 182 182
285 278 272 268 270 263 258 252 244 238 239 235 235 234 236 226 226 218 208 176 124 238 258 272 271 240 242 233 226 232 222 224 228 213 215 216 228 234 251 262 196 184 184
298 286 279 272 271 273 264 258 255 248 245 242 238 239 234 234 223 223 222 218 191 179 240 252 263 256 235 231 226 229 219 218 226 226 224 231 236 238 251 244 198 173 186
297 291 285 281 274 268 261 253 248 248 244 243 240 232 236 233 221 216 215 211 210 193 197 214 241 311 233 226 224 228 220 219 230 226 230 234 236 236 236 232 205 202 191
300 297 290 282 279 270 260 252 245 241 241 238 235 230 229 229 226 210 205 205 208 204 173 203 257 322 233 216 229 220 214 217 227 228 235 243 240 236 226 221 203 190 188
299 294 285 275 272 272 270 247 239 233 234 240 231 223 216 221 224 213 200 198 201 199 195 196 238 335 216 210 207 209 221 226 228 237 245 243 237 233 223 206 210 194 188
306 303 298 291 282 274 267 260 245 231 235 239 236 232 209 206 209 203 193 189 188 188 192 186 181 291 278 188 212 212 233 229 240 248 245 244 238 231 217 200 200 183 191
316 312 306 298 286 272 264 256 230 227 223 233 230 230 202 196 199 198 189 183 177 181 188 189 184 251 299 185 212 204 228 215 244 252 240 233 230 223 200 193 194 191 191
326 330 319 310 299 294 261 243 217 225 212 221 229 194 206 200 200 201 190 181 177 180 176 180 164 229 305 196 212 218 207 229 221 221 273 230 220 211 195 190 195 195 184
341 340 337 335 324 301 261 229 217 208 202 206 209 204 171 179 200 196 189 184 185 177 173 173 157 204 275 213 208 206 200 238 220 225 207 157 191 188 189 194 187 182 173
336 353 352 353 348 348 242 199 197 194 189 195 202 180 177 153 161 177 177 175 179 183 197 186 175 195 67 116 3 216 245 253 171 186 174 111 151 173 181 191 185 173 171
348 345 357 6 12 23 99 156 176 173 178 184 189 192 180 180 151 163 163 164 173 178 180 180 191 185 341 317 259 285 238 306 155 196 171 89 134 128 153 180 176 172 180
4 13 6 16 36 49 91 128 152 157 166 178 169 173 178 178 173 164 174 172 172 174 176 181 188 217 316 297 276 267 222 206 190 184 178 133 126 116 139 152 166 172 175
33 48 41 37 62 63 95 129 146 147 149 157 183 175 171 175 181 178 166 169 166 164 167 173 197 240 298 299 256 209 215 210 157 132 170 122 148 129 81 118 154 169 178
Height
842 842 843 844 844 844 844 844 844 843 844 844 845 845 846 846 846 846 846 846 846 846 846 846 846 847 847 847 847 845 845 844 844 845 846 847 850 851 853 856 858 861 863
840 840 841 840 841 840 841 841 841 841 842 843 844 844 844 845 845 845 845 845 845 845 845 845 845 845 846 846 846 846 845 844 844 844 844 845 849 851 853 856 858 861 863
836 837 837 838 837 837 837 838 838 838 840 841 842 842 843 843 844 844 844 844 844 844 844 844 843 844 844 845 846 846 845 844 844 844 844 844 847 850 853 855 858 861 863
832 833 834 834 835 835 835 835 835 837 838 839 839 840 841 842 842 842 842 843 843 843 843 842 842 842 842 843 844 845 845 845 844 844 844 845 847 849 852 855 857 860 863
828 828 828 830 831 831 830 831 833 834 835 836 837 838 838 839 839 840 840 840 841 841 841 841 841 841 841 841 842 843 844 844 844 844 844 844 845 849 852 855 857 859 863
822 822 823 823 825 826 828 827 828 830 831 832 833 834 835 835 836 837 837 837 838 839 839 839 839 839 839 840 840 840 842 843 843 843 844 844 844 847 850 847 856 858 863
816 815 816 818 820 821 823 825 825 825 825 828 828 830 830 831 832 833 834 834 835 836 836 837 837 837 837 838 838 838 839 841 842 844 844 844 844 846 849 852 855 858 862
811 809 810 810 810 812 816 816 818 820 820 823 824 827 829 828 828 829 830 830 830 831 832 833 834 835 835 836 836 836 837 839 841 843 844 845 845 846 847 851 854 859 862
804 803 802 803 804 804 805 807 808 811 812 816 818 821 830 828 826 825 826 825 824 825 828 830 831 831 832 833 833 834 835 836 838 841 843 843 845 844 845 847 853 856 864
798 797 796 797 798 798 798 800 801 802 805 808 812 813 816 819 825 827 823 822 821 821 823 825 827 828 829 830 831 832 833 834 835 837 839 841 844 844 845 846 850 855 862
792 790 790 790 790 791 792 793 794 796 799 800 803 807 811 814 817 819 823 820 821 821 821 823 824 825 826 827 829 830 832 832 833 835 837 839 841 843 844 846 843 853 856
786 785 784 784 784 784 785 786 787 788 790 794 796 798 803 808 811 814 818 819 820 820 820 820 821 822 823 824 826 828 829 830 831 833 835 837 840 842 844 843 837 848 854
783 782 781 780 779 779 780 781 782 783 784 786 789 792 796 800 804 808 811 815 817 818 818 817 817 819 820 822 823 825 827 828 829 831 833 836 839 841 842 843 843 840 854
777 777 776 776 776 776 777 777 777 778 780 781 784 787 791 794 799 803 806 811 817 817 817 816 815 816 817 819 821 823 825 827 828 829 831 835 839 841 843 846 846 840 856
773 771 770 769 770 770 770 770 771 772 774 777 778 782 785 789 793 798 802 805 809 817 817 814 814 814 815 817 819 821 823 825 827 828 830 834 838 840 842 844 848 850 856
768 766 764 764 763 763 763 764 765 766 767 769 772 775 780 784 788 793 797 801 805 808 814 813 813 813 813 815 817 818 821 824 825 826 828 833 836 839 841 843 845 846 854
763 761 759 758 757 757 757 758 760 761 761 763 765 769 773 779 784 788 793 797 801 805 809 811 812 812 812 813 815 817 819 821 823 825 827 830 834 836 840 841 843 847 854
758 756 754 752 751 751 751 751 753 755 756 758 760 763 767 773 779 783 788 793 798 802 805 809 811 811 810 812 814 816 817 819 821 822 824 827 830 833 836 840 844 848 853
754 752 750 748 746 745 745 746 746 748 751 753 754 757 760 767 773 778 783 789 795 799 803 807 810 811 811 811 813 815 816 818 819 820 821 823 826 830 832 836 839 845 851
751 748 746 743 740 739 738 739 740 742 746 748 750 751 755 761 767 773 780 786 791 797 801 805 808 811 810 811 813 814 815 816 817 817 817 819 822 826 829 834 835 842 849
749 746 742 739 735 733 732 733 734 738 741 744 746 747 752 758 765 770 776 784 789 795 800 804 807 810 810 811 813 814 814 814 814 815 816 816 818 822 827 832 835 841 849
747 743 739 736 731 728 726 728 731 734 739 742 745 747 750 757 763 769 776 782 788 792 798 802 805 809 809 810 812 813 813 814 813 815 815 816 818 821 825 831 835 843 849
745 742 738 734 730 724 721 724 729 733 737 741 745 747 750 756 761 768 776 782 789 793 797 801 804 807 809 810 812 812 813 813 814 814 815 816 818 820 824 829 835 843 851
745 742 739 735 731 727 724 726 730 734 738 742 746 749 752 756 761 767 776 783 789 793 797 801 804 807 808 809 811 812 812 813 813 813 814 815 819 821 826 831 838 843 848
744 741 739 737 734 732 731 731 734 737 741 744 747 751 755 758 763 769 776 783 789 793 798 801 804 807 808 809 810 810 811 813 815 815 816 816 820 824 829 833 839 847 854
748 745 743 740 738 737 736 736 738 741 744 746 749 753 756 762 765 771 778 783 788 793 798 801 804 806 807 807 806 807 809 810 811 815 814 816 822 826 832 836 840 847 853